KLM618 KBOS-EHAM

Flight info

Callsign KLM618
Flight time N/A
Altitude 35000
Route LBSTA8 LBSTA DCT ALLEX N535B UMESI/M082F350 NATU OLGON/N0470F350 DCT LIFFY UL975 WAL M16 DOLAS L603 LAMSO
Aircraft B77W/H-SDE1E2E3FGHIJ2J3J4J5M1RWXY/LB1D1

Departure

Time 2026-05-08 01:39
Airport Boston Logan International Airport (KBOS)

Arrival

Time N/A
Airport Amsterdam Airport Schiphol (EHAM)
Time Latitude Longitude Altitude Speed Heading
2026-05-08 01:11 42.37081 -71.01858 30 ft 0 kts 211°
2026-05-08 01:24 42.37103 -71.01842 30 ft 4 kts 201°
2026-05-08 01:24 42.37129 -71.01832 29 ft 4 kts 186°
2026-05-08 01:24 42.37155 -71.01833 29 ft 4 kts 159°
2026-05-08 01:25 42.37170 -71.01846 29 ft 0 kts 123°
2026-05-08 01:28 42.37168 -71.01842 28 ft 4 kts 123°
2026-05-08 01:28 42.37138 -71.01773 30 ft 9 kts 111°
2026-05-08 01:28 42.37141 -71.01690 30 ft 9 kts 77°
2026-05-08 01:28 42.37129 -71.01608 30 ft 9 kts 121°
2026-05-08 01:29 42.37087 -71.01544 30 ft 9 kts 135°
2026-05-08 01:29 42.37035 -71.01475 30 ft 11 kts 135°
2026-05-08 01:29 42.36980 -71.01401 30 ft 11 kts 135°
2026-05-08 01:29 42.36924 -71.01327 30 ft 11 kts 135°
2026-05-08 01:30 42.36868 -71.01254 30 ft 11 kts 135°
2026-05-08 01:30 42.36811 -71.01179 30 ft 12 kts 140°
2026-05-08 01:30 42.36724 -71.01151 30 ft 15 kts 192°
2026-05-08 01:30 42.36618 -71.01196 30 ft 8 kts 201°
2026-05-08 01:31 42.36616 -71.01197 30 ft 1 kts 201°
2026-05-08 01:31 42.36567 -71.01223 30 ft 13 kts 201°
2026-05-08 01:31 42.36477 -71.01266 30 ft 14 kts 198°
2026-05-08 01:31 42.36375 -71.01311 30 ft 16 kts 187°
2026-05-08 01:32 42.36294 -71.01220 30 ft 16 kts 122°
2026-05-08 01:32 42.36241 -71.01087 30 ft 16 kts 115°
2026-05-08 01:32 42.36194 -71.00948 30 ft 16 kts 114°
2026-05-08 01:32 42.36148 -71.00808 30 ft 16 kts 114°
2026-05-08 01:33 42.36107 -71.00665 31 ft 16 kts 109°
2026-05-08 01:33 42.36070 -71.00519 30 ft 16 kts 109°
2026-05-08 01:33 42.36033 -71.00374 30 ft 16 kts 109°
2026-05-08 01:33 42.35996 -71.00229 30 ft 16 kts 109°
2026-05-08 01:34 42.35953 -71.00088 30 ft 16 kts 121°
2026-05-08 01:34 42.35878 -70.99976 30 ft 16 kts 135°
2026-05-08 01:34 42.35796 -70.99869 30 ft 16 kts 135°
2026-05-08 01:34 42.35715 -70.99761 30 ft 16 kts 135°
2026-05-08 01:35 42.35635 -70.99653 30 ft 16 kts 135°
2026-05-08 01:35 42.35554 -70.99545 30 ft 16 kts 135°
2026-05-08 01:35 42.35529 -70.99511 30 ft 0 kts 135°
2026-05-08 01:36 42.35516 -70.99492 30 ft 9 kts 131°
2026-05-08 01:36 42.35494 -70.99415 30 ft 9 kts 91°
2026-05-08 01:36 42.35495 -70.99399 30 ft 0 kts 84°
2026-05-08 01:37 42.35504 -70.99320 30 ft 9 kts 77°
2026-05-08 01:37 42.35551 -70.99290 30 ft 9 kts 338°
2026-05-08 01:37 42.35570 -70.99312 30 ft 0 kts 316°
2026-05-08 01:38 42.35590 -70.99338 30 ft 14 kts 316°
2026-05-08 01:38 42.35807 -70.99624 30 ft 81 kts 315°
2026-05-08 01:39 42.36383 -71.00393 30 ft 148 kts 315°
2026-05-08 01:39 42.37216 -71.01550 212 ft 182 kts 313°
2026-05-08 01:39 42.38088 -71.02781 879 ft 183 kts 310°
2026-05-08 01:39 42.38854 -71.04144 1720 ft 180 kts 302°
2026-05-08 01:40 42.39478 -71.05580 2501 ft 177 kts 300°
2026-05-08 01:40 42.40098 -71.07050 3089 ft 181 kts 300°
2026-05-08 01:40 42.40723 -71.08546 3674 ft 184 kts 300°
2026-05-08 01:40 42.41457 -71.09968 4223 ft 187 kts 316°
2026-05-08 01:41 42.42569 -71.10919 4748 ft 193 kts 336°
2026-05-08 01:41 42.43833 -71.11567 5224 ft 202 kts 338°
2026-05-08 01:41 42.45286 -71.12273 5270 ft 234 kts 339°
2026-05-08 01:41 42.46849 -71.13031 5836 ft 245 kts 338°
2026-05-08 01:42 42.48480 -71.13863 6422 ft 255 kts 339°
2026-05-08 01:42 42.50262 -71.14205 6938 ft 268 kts
2026-05-08 01:42 42.52008 -71.13313 7629 ft 280 kts 32°
2026-05-08 01:42 42.53386 -71.11362 8309 ft 288 kts 50°
2026-05-08 01:43 42.54593 -71.09133 8947 ft 297 kts 51°
2026-05-08 01:43 42.55791 -71.06874 9693 ft 302 kts 51°
2026-05-08 01:43 42.57024 -71.04539 10345 ft 309 kts 51°
2026-05-08 01:43 42.58325 -71.02085 10610 ft 333 kts 51°
2026-05-08 01:44 42.59735 -70.99436 10818 ft 358 kts 51°
2026-05-08 01:44 42.61245 -70.96606 11030 ft 383 kts 52°
2026-05-08 01:44 42.62843 -70.93612 11607 ft 398 kts 52°
2026-05-08 01:44 42.64490 -70.90526 12365 ft 408 kts 52°
2026-05-08 01:45 42.66176 -70.87368 13212 ft 417 kts 52°
2026-05-08 01:45 42.67898 -70.84144 13956 ft 427 kts 52°
2026-05-08 01:45 42.69665 -70.80834 14655 ft 437 kts 52°
2026-05-08 01:45 42.71467 -70.77455 15360 ft 446 kts 52°
2026-05-08 01:46 42.73307 -70.74001 16067 ft 455 kts 53°
2026-05-08 01:46 42.75180 -70.70481 16775 ft 465 kts 53°
2026-05-08 01:46 42.77093 -70.66881 17518 ft 473 kts 53°